Weather in Kichmensky Gorodok

Russia / Vologda Oblast     59°59′31″N   45°48′08″E
temp.,
°C
wind,
m/s
gust,
m/s
humid.,
%
clouds,
%
prec.,
mm/h
press.,
hPa
HPBL,
m
15 august, mon
mon1500:00+11e11755 0.0 102310
03:00+10ssw00795 0.0 102410
06:00+13ssw11745 0.0 102538
09:00+20ssw11535 0.0 1024404
12:00+23wsw12450 0.0 10241227
15:00+24w23450 0.0 10231878
18:00+22wnw11651 0.0 102316
21:00+16nnw11795 0.0 102411
16 august, tue
tue1600:00+15ssw118636 0.0 102511
03:00+14wsw11915 0.0 102611
06:00+16sw11836 0.0 102638
09:00+22s006072 0.0 1026396
12:00+26sse0045100 0.0 10261459
15:00+26wsw0144100 0.0 10251761
18:00+23ene1165100 0.0 102411
21:00+18se2273100 0.0 102512
17 august, wed
wed1700:00+16s118097 0.0 102512
03:00+15ssw118765 0.0 102511
06:00+17sw12825 0.0 102574
09:00+23wsw23585 0.0 1025527
12:00+26wsw33465 0.0 10241517
15:00+25sw334838 0.0 10231143
18:00+22sw226540 0.0 102329
21:00+19sw226994 0.0 102315
18 august, thu
thu1800:00+18w117357 0.0 102311
03:00+15sw11817 0.0 102311
06:00+17w117897 0.0 102430
09:00+23wnw11562 0.0 1024330
12:00+27w11410 0.0 10231606
15:00+27w114010 0.0 10231981
18:00+24sw006142 0.0 102311
21:00+19ne117041 0.0 102411
19 august, fri
fri1900:00+19s1168100 0.0 102411
03:00+19ene1170100 0.0 102517
06:00+19se007582 0.0 102612
09:00+24ese11577 0.0 1026413
12:00+27ese12457 0.0 10261531
15:00+26sse225366 0.0 1026668
18:00+24ssw11672 0.0 102616
21:00+19ese118212 0.0 102711